Regional Weather Roundup
Issued by NWS

Home | Current Version | Previous Version | Text Only | Print | Product List | Glossary On
Versions: 1 2 3 4 5 6 7 8 9 10 11 12 13 14 15 16 17 18 19 20 21 22 23 24 25 26 27 28 29 30 31 32 33 34 35 36 37 38 39 40 41 42 43 44 45 46 47 48 49 50
000
ASUS45 KABQ 200010
RWRNM
NEW MEXICO REGIONAL WEATHER ROUNDUP
NATIONAL WEATHER SERVICE ALBUQUERQUE NM
600 PM MDT SAT AUG 19 2017

NOTE: "FAIR" MEANS FEW OR NO CLOUDS BELOW 12,000 FEET AGL WITH NO
       SIGNIFICANT WEATHER OR OBSTRUCTIONS TO VISION.

      THIS PRODUCT IS RELEASED AS TWO VERSIONS.  ONE VERSION NEAR
      THE TOP OF THE HOUR CONTAINING PRELIMINARY DATA FROM ALBUQUERQUE
      AND OTHER STATIONS.  A FINAL VERSION WITH ADDITIONAL DATA IS
      ISSUED ABOUT 10 MINUTES AFTER THE HOUR.

NMZ501-503-504-510>518-200100-
NORTHWEST PLATEAU/NORTHCENTRAL MOUNTAINS

CITY           SKY/WX    TMP DP  RH WIND       PRES   REMARKS
FARMINGTON     FAIR      93  26   9 NW13G18   30.04F
6HR MIN TEMP:  82; 6HR MAX TEMP:  94;

LOS ALAMOS     PTSUNNY   76  40  28 CALM      30.25S
SANTA FE       FAIR      77  48  35 SE31G41   30.19R
6HR MIN TEMP:  77; 6HR MAX TEMP:  87;

TAOS           FAIR      80  37  21 SW13G22   30.23F
ANGEL FIRE     FAIR      69  43  38 S12       30.33S

$$
NMZ402-403-502-505>509-200100-
WESTCENTRAL MOUNTAINS/SOUTHWEST MOUNTAINS

CITY           SKY/WX    TMP DP  RH WIND       PRES   REMARKS
GALLUP         FAIR      87  28  12 W12       30.14F
6HR MIN TEMP:  84; 6HR MAX TEMP:  93;

GRANTS         FAIR      85  27  12 CALM      30.15F
SILVER CITY    FAIR      76  48  36 W14       30.14S

$$
NMZ407-409-411-412-200100-
SOUTHERN DESERTS

CITY           SKY/WX    TMP DP  RH WIND       PRES   REMARKS
DEMING         FAIR      82  54  37 CALM      30.05F
6HR MIN TEMP:  82; 6HR MAX TEMP:  85;

LAS CRUCES     FAIR      84  52  32 CALM      30.06S
HOLLOMAN AFB   FAIR      87  51  28 SE9       30.03S
ALAMOGORDO     FAIR      86  45  23 NE6       30.03F
T OR C         FAIR      87  49  26 SW6       30.05S
6HR MIN TEMP:  82; 6HR MAX TEMP:  89;


$$
NMZ519>523-200100-
CENTRAL VALLEYS/CENTRAL HIGHLANDS

CITY           SKY/WX    TMP DP  RH WIND       PRES   REMARKS
ALBUQUERQUE    CLOUDY    84  43  23 E24       30.08S
6HR MIN TEMP:  83; 6HR MAX TEMP:  91;

DOUBLE EAGLE   PTSUNNY   82  46  28 SE23      30.12S
MORIARTY ARPT  LGT RAIN  71  55  57 SE17      30.23F
6HR MIN TEMP:  71; 6HR MAX TEMP:  87;

CLINES CORNERS FAIR      64  50  60 E9        30.29F
6HR MIN TEMP:  61; 6HR MAX TEMP:  84; 6HR PCP: TRACE;

BELEN          FAIR      87  42  21 SE17G26   30.07S
6HR MIN TEMP:  87; 6HR MAX TEMP:  93;

SOCORRO        FAIR      87  44  22 S8        30.04F
6HR MIN TEMP:  86; 6HR MAX TEMP:  91;


$$
NMZ524>526-539-540-200100-
SOUTHCENTRAL MOUNTAINS

CITY           SKY/WX    TMP DP  RH WIND       PRES   REMARKS
RUIDOSO        PTSUNNY   64  45  48 W15G23    30.27S THUNDER

$$
NMZ527>531-200100-
NORTHEAST HIGHLANDS/NORTHEAST PLAINS

CITY           SKY/WX    TMP DP  RH WIND       PRES   REMARKS
LAS VEGAS      FAIR      67  51  56 SW15      30.25F
6HR MIN TEMP:  62; 6HR MAX TEMP:  79; 6HR PCP: TRACE;

RATON          FAIR      77  45  32 S14       30.16F
6HR MIN TEMP:  72; 6HR MAX TEMP:  84; 6HR PCP: TRACE;

CLAYTON        FAIR      74  50  42 N7        30.11R
6HR MIN TEMP:  74; 6HR MAX TEMP:  88;


$$
NMZ532>537-200100-
EASTCENTRAL PLAINS

CITY           SKY/WX    TMP DP  RH WIND       PRES   REMARKS
SANTA ROSA     FAIR      79  47  33 NW20G26   30.08F
TUCUMCARI      FAIR      90  54  29 S14       30.00S
6HR MIN TEMP:  90; 6HR MAX TEMP:  97;

CANNON AFB     FAIR      86  62  44 S15       30.07R
6HR MIN TEMP:  85; 6HR MAX TEMP:  89;

CLOVIS AIRPORT FAIR      83  61  47 S13       30.06

$$
NMZ028-029-538-200100-
SOUTHEAST PLAINS

CITY           SKY/WX    TMP DP  RH WIND       PRES   REMARKS
ROSWELL        FAIR      89  55  31 S21G28    30.00R
6HR MIN TEMP:  85; 6HR MAX TEMP:  95;

ARTESIA        FAIR      84  59  42 S21       30.00F
CARLSBAD       LGT RAIN  74  69  85 SW7       29.99F
6HR MIN TEMP:  73; 6HR MAX TEMP:  90; 6HR PCP:  0.03;

HOBBS          SUNNY     88  59  37 SE12      30.02S


$$



USA.gov is the U.S. government's official web portal to all federal, state and local government web resources and services.